Content
SEND FEEDBACK

Daily
Averages
Monthly
Summary
United States of America

MILAN, MICHIGAN


Home > North America > United States > Michigan
Elevation: 660 feet     Latitude: 42 05N     Longitude: 083 35W

WEATHER
 
SELECT A DAY
Number of Records: 205,084;   Date Range: 1/1/95 - 9/29/14
 
SHARE

PRINT THIS DATA

[ ← Previous Day ]
WEATHER ALMANAC - FEBRUARY 8, 2013
[ Next Day → ]
[ °C ]   °F
Weather ElementAverageHighLow
Temperature29.6 °F33.8 °F (1:21 am)17.1 °F (11:53 pm)
Dewpoint22.6 °F28.4 °F (1:21 am)10.9 °F (11:53 pm)
Humidity75.4 %87 % (3:35 am)59 % (6:08 pm)
Barometer29.98 in30.36 in (11:53 pm)29.76 in (4:31 am)
Wind Speed15.1 mph27.6 mph (12:53 pm)
Wind Gust36.8 mph (10:27 am)
Weather ElementAverage
Visibility4.5 mi
Wind DirectionWNW (281.6 °)

Weather ElementTotal
Precipitation---
Heating Degree Days39.6 (Base 65)
Averaged from 44 records on February 8, 2013
WEATHER CONDITIONS BREAKOUT
WIND DIRECTION BREAKOUT
WEATHER BY HOUR - FEBRUARY 8, 2013
[ °C ]   °F
Local TimeTemperatureDewpointHumidityBarometerVisibilityWind DirectionWind SpeedGust SpeedPrecipitationEventsConditions
12:53 AM33.1 °F27.0 °F78 %29.83 in4.0 miENE (60°)11.5 mphRainLight Freezing Rain
1:21 AM33.8 °F28.4 °F81 %29.80 in4.0 miENE (70°)15.0 mphRainLight Freezing Rain
1:53 AM33.1 °F28.0 °F82 %29.81 in4.0 miENE (70°)11.5 mphSnowLight Snow
2:06 AM33.8 °F28.4 °F81 %29.79 in1.8 miENE (70°)10.4 mphSnowLight Snow
2:23 AM33.8 °F28.4 °F81 %29.78 in0.8 miENE (60°)10.4 mphSnowLight Snow
2:31 AM33.8 °F28.4 °F81 %29.78 in1.0 miNE (50°)9.2 mphSnowLight Snow
2:53 AM33.1 °F28.0 °F82 %29.79 in1.2 miNE (50°)9.2 mphSnowLight Snow
3:35 AM32.0 °F28.4 °F87 %29.77 in0.8 miNNE (20°)8.1 mphSnowLight Snow
3:53 AM32.0 °F28.0 °F85 %29.78 in1.0 miNorth (10°)6.9 mphSnowLight Snow
4:31 AM32.0 °F26.6 °F80 %29.76 in2.5 miNorth (360°)9.2 mphSnowLight Snow
4:53 AM32.0 °F27.0 °F82 %29.79 in3.0 miNNW (340°)10.4 mphSnowLight Snow
5:37 AM32.0 °F26.6 °F80 %29.78 in6.0 miNNW (340°)10.4 mphHaze
5:53 AM32.0 °F26.1 °F79 %29.81 in6.0 miNNW (330°)11.5 mphHaze
6:53 AM32.0 °F26.1 °F79 %29.84 in6.0 miNNW (330°)15.0 mphOvercast
7:43 AM32.0 °F26.6 °F80 %29.85 in2.0 miNNW (340°)16.1 mph25.3 mphSnowLight Snow
7:50 AM32.0 °F26.6 °F80 %29.86 in1.0 miNNW (340°)18.4 mphSnowLight Snow
7:53 AM32.0 °F26.1 °F79 %29.87 in0.8 miNNW (340°)15.0 mphSnowLight Snow
8:11 AM30.2 °F26.6 °F86 %29.87 in1.0 miNNW (340°)17.3 mphSnowLight Snow
8:19 AM30.2 °F26.6 °F86 %29.87 in1.0 miNNW (340°)18.4 mphSnowLight Snow
8:33 AM30.2 °F26.6 °F86 %29.88 in0.8 miNNW (340°)18.4 mph25.3 mphSnowLight Snow
8:46 AM30.2 °F24.8 °F80 %29.89 in1.5 miNorth (350°)21.9 mph28.8 mphSnowLight Snow
8:53 AM30.9 °F24.1 °F76 %29.91 in2.0 miNorth (360°)21.9 mph33.4 mphSnowLight Snow
8:58 AM30.2 °F24.8 °F80 %29.90 in1.5 miNorth (350°)20.7 mph33.4 mphSnowLight Snow
9:17 AM30.2 °F23.0 °F75 %29.91 in2.5 miNorth (350°)21.9 mph32.2 mphSnowLight Snow
9:24 AM30.2 °F23.0 °F75 %29.91 in4.0 miNorth (350°)21.9 mph32.2 mphSnowLight Snow
9:53 AM30.9 °F23.0 °F72 %29.95 in4.0 miNNW (340°)20.7 mph28.8 mphSnowLight Snow
10:15 AM30.2 °F21.2 °F69 %29.95 in2.0 miNorth (350°)23.0 mph35.7 mphSnowLight Snow
10:27 AM30.2 °F21.2 °F69 %29.96 in4.0 miNorth (350°)25.3 mph36.8 mphSnowLight Snow
10:53 AM30.0 °F21.9 °F72 %30.00 in4.0 miNNW (340°)20.7 mph33.4 mphSnowLight Snow
11:53 AM28.9 °F19.9 °F69 %30.05 in6.0 miNNW (340°)19.6 mph32.2 mphSnowLight Snow
12:53 PM28.0 °F19.0 °F69 %30.08 in5.0 miNNW (340°)27.6 mph31.1 mphSnowLight Snow
1:53 PM28.0 °F19.0 °F69 %30.10 in9.0 miNNW (340°)20.7 mph27.6 mphSnowLight Snow
2:53 PM28.9 °F19.0 °F67 %30.12 in8.0 miNNW (340°)18.4 mph29.9 mphSnowLight Snow
3:53 PM28.9 °F19.0 °F67 %30.15 in9.0 miNNW (340°)21.9 mph27.6 mphSnowLight Snow
4:53 PM28.0 °F18.0 °F66 %30.19 in9.0 miNNW (340°)17.3 mph25.3 mphSnowLight Snow
5:53 PM28.0 °F17.1 °F63 %30.23 in4.0 miNNW (340°)12.7 mphSnowLight Snow
6:08 PM28.4 °F15.8 °F59 %30.21 in9.0 miNNW (340°)15.0 mphSnowLight Snow
6:53 PM27.0 °F15.1 °F61 %30.26 in9.0 miNNW (340°)11.5 mph24.2 mphSnowLight Snow
7:14 PM26.6 °F15.8 °F64 %30.25 in9.0 miNorth (350°)13.8 mph21.9 mphSnowLight Snow
7:53 PM26.1 °F15.1 °F63 %30.28 in9.0 miNorth (350°)11.5 mphSnowLight Snow
8:53 PM21.9 °F12.9 °F68 %30.31 in9.0 miNNW (330°)6.9 mphSnowLight Snow
9:53 PM19.0 °F12.9 °F77 %30.33 in9.0 miNNW (330°)5.8 mphSnowLight Snow
10:53 PM19.0 °F12.9 °F77 %30.35 in9.0 miNW (320°)4.6 mphSnowLight Snow
11:53 PM17.1 °F10.9 °F77 %30.36 in9.0 miNW (310°)5.8 mphSnowLight Snow
Hourly data recorded from KYIP, located miles away from Milan, Michigan







STORIES FROM OUR PARTNERS